Flag Weather past 2 weeks in Nadiad, Gujarat, India

Now
61 °F

Haze.


Feels Like: 61 °F
Forecast: 62 / 92 °F
Wind: No wind

Location: Ahmadabad Airport

Current Time: Nov 27, 2014 at 7:26:52 AM

Latest Report: Nov 27, 2014 at 6:40 AM


Visibility: 2 mi

Pressure: 29.89 "Hg

Humidity: 83%

Dew point: 55 °F

Location of NadiadLocation

Historic Weather in Nadiad — Graph

°F

Nadiad temperature yesterday

Maximum temperature yesterday: 93 °F (at 2:10 PM)
Minimum temperature yesterday: 63 °F (at 5:40 AM)
Average temperature yesterday: 76 °F

Past Weeks' High & Low Weather Summary

 TemperatureHumidityPressure
High97 °F (Nov 13, 2:10 PM)89% (Nov 16, 5:40 AM)30.04 "Hg (Nov 16, 5:40 AM)
Low61 °F (Nov 23, 6:10 AM)23% (Nov 20, 12:40 PM)29.77 "Hg (Nov 26, 3:40 PM)
Average79 °F57%29.91 "Hg
* Reported Nov 12 5:40 AM — Nov 27 6:10 AM, Nadiad, Weather by CustomWeather, © 2014

Note: Actual official high and low records may vary slightly from our data, if they occured in-between our weather recording intervals... More about our weather records

Advertising

Nadiad weather history for previous 24 hours

 ConditionsComfort  
Time TempWeatherWind HumidityBarometerVisibility
6:10 AM
Nov 27
61 °FHaze.2 mph83%29.86 "Hg2 mi
5:40 AM63 °FHaze.2 mph77%29.86 "Hg2 mi
5:10 AM63 °FHaze.2 mph77%29.86 "Hg2 mi
4:40 AM63 °FHaze.2 mph77%29.83 "Hg2 mi
4:10 AM63 °FHaze.No wind83%29.83 "Hg2 mi
3:40 AM64 °FHaze.No wind83%29.83 "Hg2 mi
2:40 AM64 °FHaze.No wind78%29.86 "Hg2 mi
2:10 AM64 °FHaze.No wind78%29.86 "Hg2 mi
1:40 AM64 °FHaze.No wind73%29.86 "Hg2 mi
12:40 AM66 °FHaze.No wind68%29.86 "Hg2 mi
12:10 AM68 °FHaze.No wind64%29.86 "Hg2 mi
11:40 PM
Nov 26
68 °FHaze.No wind64%29.86 "Hg2 mi
11:10 PM68 °FHaze.No wind64%29.86 "Hg2 mi
10:40 PM70 °FHaze.No wind64%29.86 "Hg2 mi
9:40 PM72 °FClear.No wind57%29.86 "Hg2 mi
9:10 PM72 °FClear.No wind57%29.86 "Hg2 mi
8:40 PM75 °FClear.2 mph50%29.86 "Hg2 mi
8:10 PM75 °FClear.No wind57%29.86 "Hg2 mi
7:40 PM77 °FClear.2 mph47%29.83 "Hg2 mi
6:40 PM79 °FClear.2 mph51%29.83 "Hg2 mi
6:10 PM84 °FClear.No wind40%29.80 "Hg2 mi
5:40 PM86 °FClear.2 mph38%29.80 "Hg4 mi
5:10 PM90 °FClear.2 mph33%29.80 "Hg4 mi
4:40 PM91 °FClear.3 mph32%29.80 "Hg4 mi
4:10 PM91 °FClear.3 mph30%29.77 "Hg4 mi
3:40 PM93 °FClear.5 mph30%29.77 "Hg4 mi
2:40 PM91 °FClear.5 mph30%29.80 "Hg4 mi
2:10 PM93 °FClear.3 mph28%29.80 "Hg4 mi
1:40 PM91 °FClear.3 mph30%29.83 "Hg4 mi
1:10 PM91 °FClear.2 mph30%29.83 "Hg4 mi
12:40 PM91 °FClear.5 mph32%29.86 "Hg3 mi
11:40 AM88 °FClear.5 mph33%29.89 "Hg2 mi
11:10 AM86 °FClear.5 mph35%29.92 "Hg2 mi
10:40 AM84 °FClear.5 mph43%29.92 "Hg2 mi
9:40 AM75 °FHaze.5 mph57%29.95 "Hg1 mi
8:40 AM70 °FHaze.3 mph69%29.95 "Hg1 mi
8:10 AM66 °FHaze.3 mph78%29.92 "Hg1 mi
Weather by CustomWeather, © 2014

See weather overviewHow to use our weather pages